Stations météo

Publicité
Leutkirch-Herlazhofen, Allemagne (10945): Température de l'air & dewpoint: 19.06.2018 06:00:00 - 25.06.2018 06:00:00 (CEST)Leutkirch-Herlazhofen, Allemagne (10945): Température de l'air 5cm & Température de l'air -5cm: 19.06.2018 06:00:00 - 25.06.2018 06:00:00 (CEST)Leutkirch-Herlazhofen, Allemagne (10945): Température de l'air -20cm & Température de l'air -100cm: 19.06.2018 06:00:00 - 25.06.2018 06:00:00 (CEST)Leutkirch-Herlazhofen, Allemagne (10945): Vitesse du vent & gusts: 19.06.2018 06:00:00 - 25.06.2018 06:00:00 (CEST)Leutkirch-Herlazhofen, Allemagne (10945): Direction du vent: 19.06.2018 06:00:00 - 25.06.2018 06:00:00 (CEST)Leutkirch-Herlazhofen, Allemagne (10945): reduced air pressure: 19.06.2018 06:00:00 - 25.06.2018 06:00:00 (CEST)Leutkirch-Herlazhofen, Allemagne (10945): visibility: 19.06.2018 06:00:00 - 25.06.2018 06:00:00 (CEST)Leutkirch-Herlazhofen, Allemagne (10945): Ensoleillement: 19.06.2018 06:00:00 - 25.06.2018 06:00:00 (CEST)Leutkirch-Herlazhofen, Allemagne (10945): Quantités de précipitations: 19.06.2018 06:00:00 - 25.06.2018 06:00:00 (CEST)
Date & Time tt [°C] td [°C] tt 5cm [°C] tt -5cm [°C] tt -20cm [°C] tt -100cm [°C] ff [km/h] ff [knt] fx [km/h] fx [knt] dd ppp [hPa] vv [km] sd [min] rr [mm]
25.06.2018 06:00:00 10,7 9,9 10,5 16,8 20,0 17,0 5 3 10 5 NE 1021,2 3,8 0 0,3
25.06.2018 05:00:00 10,9 9,6 10,8 17,1 20,3 17,0 3 1 4 2 NW 1020,8 12 0 0,0
25.06.2018 04:00:00 10,7 9,5 10,1 17,4 20,6 17,0 2 1 4 2 E 1020,7 20 0 0,0
25.06.2018 03:00:00 10,8 9,4 10,6 17,7 20,9 17,0 3 2 5 3 SW 1020,8 24 0 0,0
25.06.2018 02:00:00 10,2 9,0 9,9 17,9 21,2 17,0 2 1 3 2 SE 1021,1 19 0 0,0
25.06.2018 01:00:00 9,6 8,6 8,2 18,4 21,5 17,0 0 0 5 3 N 1021,3 17 0 0,0
25.06.2018 00:00:00 10,4 9,0 8,4 19,5 21,8 17,0 0 0 4 2 N 1021,1 22 0 0,0
24.06.2018 23:00:00 12,2 9,8 11,0 20,7 22,1 17,0 3 1 5 3 SW 1020,6 26 0 0,0
24.06.2018 22:00:00 13,9 9,7 13,5 21,7 22,3 17,0 3 2 11 6 ENE 1020,0 33 0 0,0
24.06.2018 21:00:00 14,8 8,6 14,6 22,8 22,4 17,0 6 3 15 8 NNE 1019,5 43 0 0,0
24.06.2018 20:00:00 15,4 8,6 15,8 24,2 22,4 17,0 10 5 22 12 N 1019,2 49 0 0,0
24.06.2018 19:00:00 16,5 8,0 18,0 25,6 22,3 17,0 15 8 27 15 NNE 1018,5 41 18 0,0
24.06.2018 18:00:00 17,9 7,5 22,4 26,2 22,0 17,0 11 6 22 12 N 1018,0 28 7 0,0
24.06.2018 17:00:00 17,4 8,4 20,2 27,6 21,6 17,0 13 7 20 11 N 1018,4 49 13 0,0
24.06.2018 16:00:00 18,4 9,1 25,3 28,7 21,1 17,0 13 7 22 12 N 1018,2 34 44 0,0
24.06.2018 15:00:00 18,2 9,3 23,6 27,4 20,6 17,0 10 5 19 10 N 1018,3 34 28 0,0
24.06.2018 14:00:00 17,4 9,0 23,7 26,4 20,2 17,0 8 5 21 12 N 1018,9 31 41 0,0
24.06.2018 13:00:00 17,0 8,9 22,3 25,3 19,8 17,0 9 5 18 10 N 1019,3 33 56 0,0
24.06.2018 12:00:00 16,3 8,7 21,2 23,7 19,5 17,0 9 5 17 9 N 1019,9 36 50 0,0
24.06.2018 11:00:00 16,2 8,0 21,1 22,2 19,3 17,0 8 4 15 8 ENE 1019,8 33 41 0,0
24.06.2018 10:00:00 15,9 8,7 20,8 20,7 19,2 17,0 9 5 19 11 NNE 1020,0 28 60 0,0
24.06.2018 09:00:00 14,5 7,9 18,4 18,5 19,2 17,0 9 5 16 8 NE 1020,7 22 60 0,0
24.06.2018 08:00:00 13,1 8,6 14,9 16,9 19,4 17,0 5 3 9 5 NE 1021,3 25 60 0,0
24.06.2018 07:00:00 11,3 8,0 12,8 16,3 19,7 17,0 6 3 9 5 NNE 1022,0 19 43 0,0
24.06.2018 06:00:00 10,0 7,7 9,6 16,6 19,9 17,0 5 3 7 4 NE 1022,1 21 0 0,0
24.06.2018 05:00:00 10,3 7,4 10,2 16,8 20,2 17,0 5 3 9 5 NE 1022,3 22 0 0,0
24.06.2018 04:00:00 10,3 7,0 10,1 17,2 20,5 17,0 4 2 12 7 NE 1022,7 26 0 0,0
24.06.2018 03:00:00 10,6 7,4 9,9 17,7 20,8 17,0 2 1 4 2 WNW 1023,1 25 0 0,0
24.06.2018 02:00:00 10,5 8,2 9,8 18,1 21,1 17,0 0 0 4 2 N 1023,5 23 0 0,0
24.06.2018 01:00:00 10,0 8,1 10,0 18,5 21,5 17,0 3 1 5 3 NNW 1024,1 28 0 0,0
24.06.2018 00:00:00 9,9 7,8 9,7 19,1 21,8 17,0 3 2 5 3 SSW 1024,2 31 0 0,0
23.06.2018 23:00:00 10,2 6,9 8,0 20,1 22,1 17,0 4 2 6 3 SSE 1024,3 32 0 0,0
23.06.2018 22:00:00 13,0 6,4 10,3 21,7 22,3 17,0 3 2 10 6 N 1023,4 40 5 0,0
23.06.2018 21:00:00 14,7 6,1 12,9 23,4 22,4 17,0 5 3 18 10 NNE 1022,6 57 56 0,0
23.06.2018 20:00:00 16,2 5,3 16,8 25,3 22,3 17,0 8 4 21 11 NNW 1022,1 56 51 0,0
23.06.2018 19:00:00 17,3 5,9 20,2 26,7 22,1 17,0 11 6 22 12 NW 1021,7 49 42 0,0
23.06.2018 18:00:00 17,9 5,5 21,5 28,0 21,6 17,0 10 6 21 11 WNW 1021,5 21 52 0,0
23.06.2018 17:00:00 17,6 5,4 21,8 29,1 21,1 17,0 10 5 25 13 WNW 1021,9 20 60 0,0
23.06.2018 16:00:00 16,9 5,3 23,5 29,2 20,4 17,0 12 7 26 14 NNW 1022,3 23 60 0,0
23.06.2018 15:00:00 17,3 5,3 23,1 28,6 19,8 17,0 9 5 23 12 NW 1022,7 70 60 0,0
23.06.2018 14:00:00 16,3 5,1 22,2 27,0 19,2 17,0 13 7 23 13 NW 1023,5 24 57 0,0
23.06.2018 13:00:00 15,7 5,3 21,2 25,4 18,6 17,0 10 5 25 13 NW 1023,6 20 52 0,0
23.06.2018 12:00:00 15,0 5,8 19,6 23,7 18,2 17,0 9 5 20 11 WNW 1024,0 34 56 0,0
23.06.2018 11:00:00 13,1 4,2 15,8 21,0 17,9 17,0 8 5 18 10 NW 1024,9 59 55 0,0
23.06.2018 10:00:00 12,4 5,6 14,2 18,0 17,8 17,0 8 4 15 8 NE 1025,3 44 57 0,0
23.06.2018 09:00:00 11,7 5,4 15,3 15,4 18,0 17,0 9 5 16 9 NE 1025,6 40 60 0,0
23.06.2018 08:00:00 10,8 6,5 13,6 13,8 18,2 17,0 5 3 8 5 NNE 1025,9 29 60 0,0
23.06.2018 07:00:00 7,6 4,5 6,6 12,8 18,6 17,0 0 0 4 2 N 1026,8 21 60 0,0
23.06.2018 06:00:00 3,3 2,8 1,6 13,0 18,9 17,0 3 1 6 4 NNW 1027,8 15 4 0,0
23.06.2018 05:00:00 3,9 3,4 1,0 13,8 19,3 16,9 2 1 6 3 SW 1027,6 10 0 0,0
23.06.2018 04:00:00 5,5 4,8 2,5 14,7 19,6 16,9 2 1 4 2 ESE 1027,4 18 0 0,0
23.06.2018 03:00:00 6,9 6,1 4,3 15,5 19,9 16,9 3 2 4 2 SSE 1027,1 20 0 0,0
23.06.2018 02:00:00 7,3 6,5 6,0 16,1 20,2 16,9 1 0 3 2 S 1027,3 25 0 0,0
23.06.2018 01:00:00 8,5 7,2 6,5 16,8 20,5 16,9 1 1 4 2 S 1027,1 32 0 0,0
23.06.2018 00:00:00 8,6 6,4 7,2 17,4 20,8 16,9 4 2 6 4 ESE 1027,4 50 0 0,0
22.06.2018 23:00:00 9,4 6,4 8,2 18,2 21,1 16,9 4 2 7 4 S 1026,9 53 0 0,0
22.06.2018 22:00:00 11,5 5,1 10,0 19,2 21,3 16,9 5 3 14 7 N 1026,0 70 2 0,0
22.06.2018 21:00:00 12,6 4,7 12,2 20,2 21,4 16,9 6 3 15 8 N 1025,1 70 0 0,0
22.06.2018 20:00:00 13,6 3,3 13,8 21,2 21,5 16,9 8 5 19 11 NW 1024,5 70 12 0,0
22.06.2018 19:00:00 13,9 3,7 14,9 21,8 21,6 16,9 9 5 26 14 N 1024,4 70 0 0,0
22.06.2018 18:00:00 14,5 4,2 15,8 22,6 21,6 16,9 11 6 26 14 N 1023,9 69 6 0,0
22.06.2018 17:00:00 15,2 5,6 17,9 22,7 21,5 16,8 13 7 24 13 NNW 1023,3 70 2 0,0
22.06.2018 16:00:00 14,8 5,2 15,9 23,2 21,4 16,8 10 5 22 12 W 1023,3 70 1 0,0
22.06.2018 15:00:00 14,5 3,7 15,6 24,3 21,1 16,8 16 8 31 17 W 1023,1 49 9 0,0
22.06.2018 14:00:00 14,9 3,9 18,4 24,6 20,8 16,8 17 9 32 18 W 1023,1 39 22 0,0
22.06.2018 13:00:00 14,8 4,1 19,0 24,9 20,5 16,8 17 9 37 20 W 1023,4 26 46 0,0
22.06.2018 12:00:00 13,7 2,5 17,9 23,5 20,2 16,8 22 12 36 19 WNW 1023,8 19 57 0,0
22.06.2018 11:00:00 12,5 4,2 16,7 22,0 20,1 16,8 16 9 33 18 W 1023,7 23 51 0,0
22.06.2018 10:00:00 11,4 4,6 16,5 19,7 20,1 16,8 13 7 23 12 NW 1024,0 19 59 0,0
22.06.2018 09:00:00 10,8 3,8 14,5 17,5 20,4 16,8 5 3 15 8 NE 1024,0 32 30 0,0
22.06.2018 08:00:00 8,9 3,6 10,0 16,6 20,7 16,7 8 4 16 9 N 1024,6 52 2 0,0
22.06.2018 07:00:00 9,1 3,6 9,7 16,3 21,1 16,7 7 4 13 7 N 1024,3 70 23 0,0
22.06.2018 06:00:00 8,2 3,5 6,2 16,5 21,5 16,7 4 2 8 4 NNE 1024,5 70 6 0,0
22.06.2018 05:00:00 9,2 2,9 7,7 17,1 21,9 16,7 6 3 13 7 N 1024,1 67 0 0,0
22.06.2018 04:00:00 9,8 2,9 7,0 18,0 22,3 16,7 8 4 16 9 N 1023,9 70 0 0,0
22.06.2018 03:00:00 11,4 3,1 9,4 19,2 22,6 16,7 10 5 26 14 N 1022,9 70 0 0,0
22.06.2018 02:00:00 13,2 4,7 12,5 20,2 23,0 16,7 10 5 19 10 NNW 1022,0 70 0 0,0
22.06.2018 01:00:00 14,3 4,4 13,9 20,9 23,3 16,7 12 7 29 15 NNW 1021,0 70 0 0,0
22.06.2018 00:00:00 15,5 5,9 15,0 22,0 23,6 16,7 17 9 29 16 NNW 1020,0 61 0 0,0
21.06.2018 23:00:00 17,2 11,7 16,7 22,9 23,8 16,6 12 6 28 15 NNW 1018,2 63 0 0,0
21.06.2018 22:00:00 18,3 13,0 17,9 23,9 24,0 16,6 13 7 27 14 NNW 1017,0 59 0 0,0
21.06.2018 21:00:00 19,3 13,2 18,8 25,1 24,1 16,6 16 8 30 16 NNW 1016,1 60 1 0,0
21.06.2018 20:00:00 21,2 12,5 21,1 26,3 24,1 16,6 14 8 28 15 NW 1014,6 64 3 0,0
21.06.2018 19:00:00 22,4 12,6 22,7 27,5 23,9 16,6 14 8 32 17 WNW 1014,0 70 9 0,0
21.06.2018 18:00:00 23,2 12,9 24,1 28,8 23,7 16,6 16 9 32 17 NW 1013,6 37 41 0,0
21.06.2018 17:00:00 23,9 13,2 26,0 28,8 23,4 16,6 22 12 37 20 NW 1013,4 16 43 0,0
21.06.2018 16:00:00 25,4 15,6 29,4 28,5 23,2 16,6 17 9 29 16 W 1012,8 19 60 0,0
21.06.2018 15:00:00 21,2 15,7 21,3 27,5 22,8 16,6 16 8 36 19 W 1014,4 27 9 0,2
21.06.2018 14:00:00 24,0 15,5 24,4 29,6 22,3 16,6 22 12 41 22 WSW 1013,6 35 36 0,0
21.06.2018 13:00:00 25,0 14,9 27,9 28,9 21,8 16,5 24 13 36 19 WSW 1013,7 12 51 0,0
21.06.2018 12:00:00 25,2 16,9 29,4 27,3 21,4 16,5 22 12 35 19 W 1014,1 19 60 0,0
21.06.2018 11:00:00 23,7 15,9 26,7 25,0 21,2 16,5 18 10 29 16 SW 1014,5 10 51 0,0
21.06.2018 10:00:00 23,0 16,4 25,3 23,2 21,1 16,5 22 12 31 17 SW 1014,8 13 60 0,0
21.06.2018 09:00:00 21,9 15,2 23,6 21,1 21,2 16,5 16 9 24 13 SW 1015,4 19 59 0,0
21.06.2018 08:00:00 20,6 14,9 21,8 19,5 21,4 16,5 9 5 16 8 SSW 1015,9 29 60 0,0
21.06.2018 07:00:00 17,3 14,1 17,7 18,4 21,7 16,5 10 6 15 8 S 1016,8 24 60 0,0
21.06.2018 06:00:00 14,0 12,8 12,1 18,4 22,1 16,5 5 3 10 5 SSE 1017,7 25 7 0,0
21.06.2018 05:00:00 13,1 12,6 10,2 18,9 22,5 16,5 4 2 5 3 S 1017,9 18 0 0,0
21.06.2018 04:00:00 13,2 12,4 10,6 19,5 22,9 16,4 3 2 7 4 SSW 1018,4 21 0 0,0
21.06.2018 03:00:00 13,6 12,8 10,4 20,2 23,3 16,4 3 2 6 4 SE 1018,6 16 0 0,0
21.06.2018 02:00:00 14,0 13,6 11,2 21,0 23,7 16,4 3 1 5 3 ESE 1018,8 12 0 0,0
21.06.2018 01:00:00 14,5 13,8 11,9 22,0 24,1 16,4 2 1 3 1 NNW 1018,9 16 0 0,0
21.06.2018 00:00:00 15,3 14,4 12,6 23,1 24,4 16,4 3 1 4 2 ESE 1019,2 20 0 0,0
20.06.2018 23:00:00 16,9 14,6 14,1 24,4 24,7 16,4 2 1 5 3 E 1018,9 34 0 0,0
20.06.2018 22:00:00 18,8 15,5 15,7 26,0 24,9 16,4 3 2 10 5 NE 1018,2 17 15 0,0
20.06.2018 21:00:00 23,2 14,9 20,5 27,9 24,9 16,4 6 3 14 7 NE 1016,7 53 60 0,0
20.06.2018 20:00:00 25,0 14,2 25,4 29,8 24,8 16,4 9 5 14 8 NE 1016,3 57 60 0,0
20.06.2018 19:00:00 25,8 14,2 27,9 31,3 24,5 16,4 10 5 18 10 NE 1016,1 37 60 0,0
20.06.2018 18:00:00 26,2 13,8 29,5 32,5 24,0 16,4 9 5 17 9 NE 1016,4 44 60 0,0
20.06.2018 17:00:00 26,3 13,8 30,6 33,2 23,4 16,4 9 5 21 12 NE 1016,8 62 60 0,0
20.06.2018 16:00:00 25,9 13,0 30,8 33,2 22,7 16,4 9 5 21 11 NE 1017,4 39 60 0,0
20.06.2018 15:00:00 25,5 13,0 30,5 32,5 22,0 16,3 10 5 22 12 NNE 1017,7 34 60 0,0
20.06.2018 14:00:00 25,3 14,0 30,3 31,4 21,3 16,3 12 6 24 13 NE 1018,0 22 60 0,0
20.06.2018 13:00:00 24,6 14,1 28,8 29,7 20,7 16,3 11 6 22 12 ENE 1018,7 28 60 0,0
20.06.2018 12:00:00 23,8 12,9 28,0 27,2 20,2 16,3 12 7 24 13 ENE 1019,1 27 60 0,0
20.06.2018 11:00:00 22,6 13,6 26,7 24,5 19,9 16,3 12 7 24 13 ENE 1019,5 21 60 0,0
20.06.2018 10:00:00 21,7 13,8 24,5 21,8 19,8 16,3 14 7 24 13 ENE 1019,7 18 60 0,0
20.06.2018 09:00:00 20,6 14,1 23,3 19,5 19,9 16,3 10 6 14 8 NE 1020,2 30 60 0,0
20.06.2018 08:00:00 17,5 13,3 20,3 17,7 20,1 16,3 5 3 9 5 N 1021,5 15 60 0,0
20.06.2018 07:00:00 14,5 12,1 14,3 16,6 20,4 16,3 2 1 4 2 W 1022,6 15 50 0,0
20.06.2018 06:00:00 10,1 10,0 8,2 16,6 20,8 16,3 2 1 4 2 NW 1023,8 9 8 0,0
20.06.2018 05:00:00 10,7 10,6 8,2 17,2 21,2 16,3 3 1 4 2 SSW 1023,6 8 0 0,0
20.06.2018 04:00:00 10,9 10,8 8,3 17,8 21,6 16,3 3 2 3 2 SW 1023,8 11 0 0,0
20.06.2018 03:00:00 10,9 10,7 8,5 18,5 22,0 16,2 2 1 5 3 WSW 1024,2 14 0 0,0
20.06.2018 02:00:00 11,7 11,0 9,0 19,3 22,4 16,2 2 1 4 2 S 1024,3 25 0 0,0
20.06.2018 01:00:00 12,3 11,7 9,9 20,1 22,8 16,2 2 1 5 3 SSW 1024,3 17 0 0,0
20.06.2018 00:00:00 13,0 12,0 10,5 21,2 23,1 16,2 4 2 6 3 SSW 1024,2 25 0 0,0
19.06.2018 23:00:00 14,7 12,8 12,3 22,4 23,4 16,2 5 3 5 3 ESE 1023,9 39 0 0,0
19.06.2018 22:00:00 16,4 13,5 13,1 23,9 23,6 16,2 3 2 7 4 ENE 1023,3 18 15 0,0
19.06.2018 21:00:00 20,9 12,4 17,7 25,5 23,6 16,2 4 2 11 6 NE 1021,9 70 60 0,0
19.06.2018 20:00:00 22,4 11,9 23,1 27,3 23,6 16,2 7 4 14 8 NE 1021,6 43 60 0,0
19.06.2018 19:00:00 23,1 12,7 24,9 28,8 23,3 16,2 8 4 17 9 ENE 1021,5 47 55 0,0
19.06.2018 18:00:00 23,2 11,8 26,6 30,3 22,9 16,2 7 4 16 9 NNE 1021,6 40 58 0,0
19.06.2018 17:00:00 22,9 12,0 26,7 31,0 22,4 16,2 8 4 16 8 NNE 1021,9 70 53 0,0
19.06.2018 16:00:00 22,6 11,8 27,2 30,7 21,8 16,2 8 4 15 8 NNE 1022,3 43 30 0,0
19.06.2018 15:00:00 22,4 11,9 28,6 31,6 21,1 16,2 10 5 19 10 NNE 1022,6 20 57 0,0
19.06.2018 14:00:00 22,1 10,9 27,9 29,9 20,4 16,2 6 3 17 9 W 1023,1 42 56 0,0
19.06.2018 13:00:00 21,4 12,2 25,5 28,6 19,8 16,2 9 5 16 9 W 1023,2 28 55 0,0
19.06.2018 12:00:00 20,2 11,6 24,5 25,5 19,4 16,2 11 6 18 10 WNW 1023,8 27 41 0,0
19.06.2018 11:00:00 20,1 11,6 25,8 23,6 19,1 16,2 6 3 13 7 N 1024,0 24 57 0,0
19.06.2018 10:00:00 18,6 10,2 23,2 20,7 19,0 16,2 4 2 15 8 N 1024,8 65 60 0,0
19.06.2018 09:00:00 17,5 12,1 19,1 18,4 19,1 16,2 3 1 6 3 WSW 1024,9 33 20 0,0
19.06.2018 08:00:00 14,9 11,9 15,7 17,3 19,3 16,2 3 2 6 4 S 1025,4 26 0 0,0
19.06.2018 07:00:00 13,4 12,4 13,2 16,6 19,6 16,1 4 2 6 4 SSE 1025,4 17 0 0,0
19.06.2018 06:00:00 11,5 11,0 11,3 16,4 19,9 16,1 0 0 6 3 N 1025,8 16 0 0,0

tt = Température de l'air
td = dewpoint
tt 5cm = Température de l'air 5cm
tt -5cm = Température de l'air -5cm
tt -20cm = Température de l'air -20cm
tt -100cm = Température de l'air -100cm
ff = Vitesse du vent
fx = gusts
dd = Direction du vent
ppp = reduced air pressure
vv = visibility
sd = Ensoleillement
rr = Quantités de précipitations

stations d'obs. à proximité